Location: Buttermere
(51.3333°N, 1.5167°W)
Time: 22:31:02
(UTC+00:00)

Cosmos 1025 Rocket - Pass Details

Date: 18 September 2020
Orbit: 595 x 617 km, 82.5° (Epoch: 20 October)

Event Time Altitude Azimuth Distance (km) Brightness Sun altitude
Rises 18:44:31 0° 356° (N) 2,885 6.7 -5.8°
Reaches altitude 10° 18:46:59 10° 8° (N) 1,979 5.7 -6.2°
Maximum altitude 18:50:49 29° 69° (ENE) 1,136 4.0 -6.8°
Drops below altitude 10° 18:54:39 10° 130° (SE) 1,975 5.1 -7.3°
Enters shadow 18:56:09 - 138° (SE) 2,515 5.7 -7.6°
